Location: Castelnau
(43.6639°N, 0.8431°W)
Time: 17:20:30
(UTC+00:00)

SeaSat 1 - Pass Details

Date: 13 January 2026
Orbit: 737 x 739 km, 108.0° (Epoch: 10 February)

Event Time Altitude Azimuth Distance (km) Brightness Sun altitude
Rises 05:56:30 0° 29° (NNE) 3,182 5.9 -17.3°
Reaches altitude 10° 05:58:48 10° 33° (NNE) 2,255 5.2 -16.9°
Maximum altitude 06:03:40 64° 115° (ESE) 819 2.9 -16.1°
Drops below altitude 10° 06:08:30 10° 197° (SSW) 2,241 4.9 -15.2°
Sets 06:10:46 0° 200° (SSW) 3,159 5.6 -14.8°
